CW4647 Weather Reports


time (UTC)temp
C
wind
direction
speed
KPH
gust
KPH
rain 1hr
cm
rain 24hr
cm
rain mn
cm
humidity
%
barometer
mb
20260509185558 27 60 3.2 22.5 0.00 0.00 0.00 79 1010.7
20260509185057 27 86 11.3 22.5 0.00 0.00 0.00 79 1010.7
20260509184603 27 78 6.4 17.7 0.00 0.00 0.00 79 1010.5
20260509184057 27 43 8.0 17.7 0.00 0.00 0.00 79 1010.4
20260509183557 27 95 8.0 17.7 0.00 0.00 0.00 79 1010.4
20260509183059 27 62 8.0 19.3 0.00 0.00 0.00 80 1010.4
20260509182558 27 87 11.3 19.3 0.00 0.00 0.00 79 1010.4
20260509182057 27 85 8.0 24.1 0.00 0.00 0.00 79 1010.3
20260509181621 27 76 9.7 24.1 0.00 0.00 0.00 79 1010.3
20260509181055 27 99 17.7 25.7 0.00 0.00 0.00 79 1010.3
20260509180558 27 90 17.7 25.7 0.00 0.00 0.00 79 1010.2
20260509180055 27 92 11.3 19.3 0.00 0.00 0.00 80 1010.2
20260509175555 27 82 12.9 19.3 0.00 0.03 0.00 79 1010.2
20260509175058 27 94 14.5 24.1 0.00 0.03 0.00 79 1010.2
20260509174602 27 61 14.5 24.1 0.00 0.03 0.00 79 1010.2
20260509174058 27 85 16.1 24.1 0.00 0.03 0.00 79 1010.2
20260509173557 27 61 17.7 24.1 0.00 0.03 0.00 79 1010.1
20260509173105 27 98 11.3 19.3 0.00 0.03 0.00 79 1010.0
20260509172557 27 76 9.7 19.3 0.00 0.03 0.00 79 1010.0
20260509172100 27 72 9.7 19.3 0.00 0.03 0.00 79 1010.0
20260509171558 27 77 8.0 29.0 0.00 0.03 0.00 79 1010.0
20260509171057 27 98 12.9 29.0 0.00 0.03 0.00 79 1010.0
20260509170557 27 58 16.1 29.0 0.00 0.03 0.00 78 1010.0
20260509170059 27 98 14.5 22.5 0.00 0.03 0.00 79 1010.0
20260509165557 27 75 11.3 24.1 0.00 0.03 0.00 79 1010.1
20260509165100 27 73 9.7 24.1 0.00 0.03 0.00 79 1010.2
20260509164557 27 81 12.9 24.1 0.00 0.03 0.00 79 1010.3
20260509164057 27 80 4.8 27.4 0.00 0.03 0.00 79 1010.4
20260509163554 27 82 14.5 27.4 0.00 0.03 0.00 79 1010.3
20260509163059 27 82 11.3 22.5 0.00 0.03 0.00 79 1010.4
20260509162559 27 76 9.7 24.1 0.00 0.03 0.00 79 1010.4
20260509162102 27 72 14.5 24.1 0.00 0.03 0.00 79 1010.4
20260509161603 27 103 11.3 20.9 0.00 0.03 0.00 79 1010.5
20260509161058 27 67 12.9 20.9 0.00 0.03 0.00 79 1010.6
20260509160602 27 86 11.3 25.7 0.00 0.03 0.00 79 1010.5
20260509160100 27 360 16.1 25.7 0.00 0.03 0.00 79 1010.6
20260509155557 27 59 11.3 25.7 0.00 0.03 0.00 78 1010.5
20260509155057 27 68 14.5 25.7 0.00 0.03 0.00 78 1010.6
20260509154559 27 92 14.5 25.7 0.00 0.03 0.00 78 1010.7
20260509154058 27 66 11.3 20.9 0.00 0.03 0.00 78 1010.7
20260509153558 27 360 11.3 20.9 0.00 0.03 0.00 78 1010.7
20260509153056 27 360 14.5 20.9 0.00 0.03 0.00 78 1010.7
20260509152558 27 80 9.7 24.1 0.00 0.03 0.00 78 1010.7
20260509152100 27 67 12.9 25.7 0.00 0.03 0.00 78 1010.9
20260509151604 27 78 19.3 25.7 0.00 0.03 0.00 77 1010.9
20260509151057 27 76 12.9 25.7 0.00 0.03 0.00 77 1011.0
20260509150558 27 360 16.1 25.7 0.00 0.03 0.00 77 1011.0
20260509150057 27 89 11.3 24.1 0.00 0.03 0.00 77 1011.1
20260509145559 27 88 12.9 24.1 0.00 0.03 0.00 78 1011.1
20260509145058 27 83 11.3 24.1 0.00 0.03 0.00 78 1011.1
20260509144610 27 360 11.3 24.1 0.00 0.03 0.00 78 1011.1
20260509144100 27 95 11.3 24.1 0.00 0.03 0.00 77 1011.1
20260509143558 27 360 16.1 25.7 0.00 0.03 0.00 77 1011.2
20260509143124 27 127 16.1 25.7 0.00 0.03 0.00 77 1011.2
20260509142555 27 78 12.9 25.7 0.00 0.03 0.00 77 1011.3
20260509142102 27 71 14.5 25.7 0.00 0.03 0.00 77 1011.3
20260509141558 27 36 9.7 22.5 0.00 0.03 0.00 77 1011.4
20260509141058 27 85 12.9 22.5 0.00 0.03 0.00 77 1011.5
20260509140557 27 98 12.9 22.5 0.00 0.03 0.00 77 1011.7
20260509140106 27 85 14.5 22.5 0.00 0.03 0.00 77 1011.7
20260509135600 27 63 9.7 20.9 0.00 0.05 0.03 77 1011.7
20260509135057 27 85 14.5 22.5 0.00 0.05 0.03 78 1011.9
20260509134612 27 65 12.9 22.5 0.00 0.05 0.03 78 1011.9
20260509134059 27 92 16.1 22.5 0.00 0.05 0.03 78 1012.0
20260509133554 27 47 11.3 20.9 0.00 0.05 0.03 78 1012.0
20260509133056 28 88 8.0 20.9 0.00 0.05 0.03 77 1012.1
20260509132558 28 60 12.9 25.7 0.00 0.05 0.03 77 1012.2
20260509132100 27 92 14.5 25.7 0.00 0.05 0.03 77 1012.3
20260509131556 27 93 11.3 22.5 0.00 0.05 0.03 77 1012.3
20260509131057 28 51 11.3 19.3 0.00 0.05 0.03 77 1012.3
20260509130557 28 61 8.0 24.1 0.00 0.05 0.03 78 1012.4
20260509130101 28 90 11.3 24.1 0.00 0.05 0.03 77 1012.3
20260509125557 28 80 12.9 29.0 0.00 0.05 0.03 77 1012.3
20260509125058 28 63 9.7 29.0 0.00 0.05 0.03 77 1012.3
20260509124557 28 84 14.5 25.7 0.00 0.05 0.03 76 1012.3
20260509124058 28 360 16.1 25.7 0.00 0.05 0.03 76 1012.3
20260509123558 28 59 9.7 24.1 0.00 0.05 0.03 76 1012.3
20260509123127 28 65 11.3 24.1 0.00 0.05 0.03 76 1012.2
20260509122555 28 89 14.5 25.7 0.00 0.05 0.03 76 1012.2
20260509122057 28 74 11.3 25.7 0.00 0.05 0.03 76 1012.2
20260509121612 28 360 11.3 25.7 0.00 0.05 0.03 75 1012.2
20260509121056 28 360 12.9 24.1 0.00 0.05 0.03 76 1012.1
20260509120556 28 360 16.1 24.1 0.00 0.05 0.03 76 1012.1
20260509120113 28 90 9.7 24.1 0.00 0.05 0.03 76 1012.1
20260509115557 28 84 11.3 22.5 0.00 0.05 0.03 76 1012.1
20260509115057 28 95 12.9 22.5 0.00 0.05 0.03 76 1012.1
20260509114602 28 88 12.9 22.5 0.00 0.05 0.03 76 1012.1
20260509114058 28 360 12.9 24.1 0.00 0.05 0.03 76 1012.1
20260509113556 28 82 14.5 29.0 0.00 0.05 0.03 75 1012.2
20260509113103 28 62 12.9 29.0 0.00 0.05 0.03 76 1012.1
20260509112557 28 98 17.7 29.0 0.00 0.05 0.03 76 1012.1
20260509112058 28 74 14.5 27.4 0.00 0.05 0.03 77 1012.1
20260509111608 28 79 14.5 27.4 0.00 0.05 0.03 77 1012.0
20260509111059 28 98 6.4 29.0 0.00 0.05 0.03 77 1012.0
20260509110557 28 76 12.9 29.0 0.00 0.05 0.03 77 1012.0
20260509110106 28 126 16.1 27.4 0.00 0.05 0.03 76 1011.9
20260509105557 28 360 8.0 22.5 0.00 0.05 0.03 76 1012.0
20260509105058 28 76 12.9 27.4 0.00 0.05 0.03 76 1011.9
20260509104600 28 360 14.5 27.4 0.00 0.05 0.03 76 1011.8
20260509104058 28 360 14.5 29.0 0.00 0.05 0.03 76 1011.8
20260509103557 28 94 17.7 29.0 0.00 0.05 0.03 76 1011.7
20260509103106 28 105 14.5 24.1 0.00 0.05 0.03 76 1011.7
20260509102557 28 101 14.5 24.1 0.00 0.05 0.03 76 1011.7
20260509102058 28 94 9.7 20.9 0.00 0.05 0.03 76 1011.7
20260509101624 28 67 12.9 27.4 0.00 0.05 0.03 75 1011.7
20260509101058 28 103 17.7 27.4 0.00 0.05 0.03 75 1011.6
20260509100558 28 84 11.3 25.7 0.00 0.05 0.03 76 1011.5
20260509100059 28 360 11.3 29.0 0.00 0.05 0.03 76 1011.5
20260509095558 28 55 12.9 29.0 0.00 0.05 0.03 76 1011.4
20260509095057 28 88 9.7 25.7 0.00 0.05 0.03 76 1011.4
20260509094604 28 65 14.5 25.7 0.00 0.05 0.03 76 1011.4
20260509094057 28 78 16.1 25.7 0.00 0.05 0.03 76 1011.3
20260509093557 28 71 12.9 24.1 0.00 0.05 0.03 76 1011.3
20260509093106 28 117 11.3 24.1 0.00 0.05 0.03 75 1011.2
20260509092557 28 87 12.9 30.6 0.00 0.05 0.03 75 1011.2
20260509092057 28 80 12.9 30.6 0.00 0.05 0.03 75 1011.1
20260509091604 28 72 11.3 24.1 0.00 0.05 0.03 75 1011.1
20260509091058 28 86 11.3 25.7 0.00 0.05 0.03 75 1011.0
20260509090557 28 360 14.5 25.7 0.00 0.05 0.03 76 1011.0
20260509085557 28 92 12.9 25.7 0.00 0.05 0.03 76 1011.1
20260509085057 28 72 12.9 25.7 0.00 0.05 0.03 75 1011.1
20260509084558 28 88 16.1 25.7 0.00 0.05 0.03 75 1011.1
20260509084057 28 111 14.5 32.2 0.00 0.05 0.03 75 1011.1
20260509083556 28 95 14.5 32.2 0.00 0.05 0.03 74 1011.0
20260509083059 28 74 17.7 32.2 0.00 0.05 0.03 74 1010.9
20260509082557 28 61 12.9 22.5 0.00 0.05 0.03 74 1010.9
20260509082058 28 77 11.3 22.5 0.00 0.05 0.03 74 1010.8
20260509081610 28 78 14.5 22.5 0.00 0.05 0.03 74 1010.8
20260509081058 28 78 14.5 29.0 0.00 0.05 0.03 74 1010.8
20260509080557 28 67 19.3 29.0 0.00 0.05 0.03 74 1010.8
20260509080057 28 55 14.5 25.7 0.00 0.05 0.03 74 1010.7
20260509075557 28 94 14.5 30.6 0.00 0.05 0.03 74 1010.7
20260509075057 28 88 16.1 30.6 0.00 0.05 0.03 73 1010.7
20260509074600 28 74 17.7 30.6 0.00 0.05 0.03 72 1010.7
20260509074057 28 98 19.3 27.4 0.00 0.05 0.03 73 1010.5
20260509073559 29 69 14.5 32.2 0.00 0.05 0.03 72 1010.4
20260509073106 29 360 14.5 32.2 0.00 0.05 0.03 72 1010.4
20260509072600 29 103 19.3 29.0 0.00 0.05 0.03 71 1010.3
20260509072059 29 57 16.1 29.0 0.00 0.05 0.03 71 1010.2
20260509071559 29 76 17.7 29.0 0.00 0.05 0.03 70 1010.2
20260509071058 29 113 17.7 32.2 0.00 0.05 0.03 70 1010.1
20260509070556 29 111 19.3 32.2 0.00 0.05 0.03 71 1010.1
20260509070058 29 360 17.7 32.2 0.00 0.05 0.03 71 1010.2
20260509065557 29 98 20.9 32.2 0.00 0.05 0.03 69 1010.3
20260509065057 29 66 19.3 25.7 0.00 0.05 0.03 70 1010.3
20260509064618 30 93 14.5 27.4 0.00 0.05 0.03 70 1010.3
20260509064058 30 80 14.5 29.0 0.00 0.05 0.03 70 1010.2
20260509063558 30 114 14.5 30.6 0.00 0.05 0.03 68 1010.1
20260509063057 30 100 17.7 30.6 0.00 0.05 0.03 68 1010.1
20260509062558 30 70 14.5 29.0 0.00 0.05 0.03 68 1010.2
20260509062057 30 105 19.3 30.6 0.00 0.05 0.03 68 1010.2
20260509061556 30 98 17.7 33.8 0.00 0.05 0.03 68 1010.3
20260509061101 30 72 12.9 40.2 0.00 0.05 0.03 68 1010.2
20260509060557 30 100 22.5 40.2 0.00 0.05 0.03 69 1010.1
20260509060058 30 60 22.5 40.2 0.00 0.05 0.03 69 1010.1
20260509055557 30 86 27.4 40.2 0.00 0.05 0.03 68 1010.1
20260509055057 30 104 17.7 38.6 0.00 0.05 0.03 68 1010.0
20260509054602 30 42 17.7 40.2 0.00 0.05 0.03 69 1010.0
20260509054055 30 360 19.3 40.2 0.00 0.05 0.03 69 1010.1
20260509053558 30 360 20.9 40.2 0.00 0.05 0.03 67 1010.0
20260509053109 30 82 14.5 35.4 0.00 0.05 0.03 68 1010.1
20260509052558 30 90 20.9 40.2 0.00 0.05 0.03 68 1010.1
20260509052118 30 97 24.1 40.2 0.00 0.05 0.03 67 1010.2
20260509051559 30 74 17.7 35.4 0.00 0.05 0.03 68 1010.2
20260509051058 30 360 22.5 35.4 0.00 0.05 0.03 69 1010.3
20260509050601 30 94 22.5 45.1 0.00 0.05 0.03 69 1010.2
20260509050059 30 82 25.7 45.1 0.00 0.05 0.03 68 1010.2
20260509045557 30 88 25.7 35.4 0.00 0.05 0.03 68 1010.2
20260509045058 30 82 25.7 35.4 0.00 0.05 0.03 68 1010.2
20260509044557 30 109 19.3 33.8 0.00 0.05 0.03 66 1010.2
20260509044057 30 65 20.9 37.0 0.00 0.05 0.03 67 1010.2
20260509043556 30 96 25.7 37.0 0.00 0.05 0.03 68 1010.3
20260509043103 30 78 19.3 35.4 0.00 0.05 0.03 68 1010.3
20260509042558 30 124 24.1 38.6 0.00 0.05 0.03 68 1010.3
20260509042057 30 82 20.9 38.6 0.00 0.05 0.03 67 1010.3
20260509041620 31 99 19.3 35.4 0.00 0.05 0.03 66 1010.3
20260509041058 30 86 22.5 37.0 0.00 0.05 0.03 69 1010.3
20260509040557 30 85 24.1 43.5 0.00 0.05 0.03 68 1010.2
20260509040057 30 96 25.7 43.5 0.00 0.05 0.03 69 1010.4
20260509035557 30 73 27.4 43.5 0.00 0.05 0.03 68 1010.4
20260509035058 30 90 22.5 35.4 0.00 0.05 0.03 69 1010.5
20260509034558 30 98 20.9 38.6 0.00 0.05 0.03 68 1010.6
20260509034057 30 107 19.3 38.6 0.00 0.05 0.03 66 1010.7
20260509033557 30 117 24.1 37.0 0.00 0.05 0.03 67 1010.8
20260509033057 30 108 14.5 37.0 0.00 0.05 0.03 69 1010.8
20260509032557 30 72 19.3 37.0 0.00 0.05 0.03 69 1010.8
20260509032056 30 88 24.1 37.0 0.00 0.05 0.03 67 1010.8
20260509031558 30 56 24.1 41.8 0.00 0.05 0.03 66 1010.8
20260509031100 30 105 19.3 41.8 0.00 0.05 0.03 66 1010.8
20260509030558 30 114 19.3 35.4 0.00 0.05 0.03 66 1010.8
20260509030058 31 121 24.1 35.4 0.00 0.05 0.03 65 1010.9
20260509025559 31 117 14.5 33.8 0.00 0.05 0.03 64 1010.9
20260509025055 31 97 19.3 32.2 0.00 0.05 0.03 66 1010.9
20260509024600 31 75 16.1 32.2 0.00 0.05 0.03 67 1010.9
20260509024056 30 89 22.5 30.6 0.00 0.05 0.03 68 1011.0
20260509023558 30 88 17.7 30.6 0.00 0.05 0.03 68 1011.0
20260509023109 30 109 20.9 33.8 0.00 0.05 0.03 66 1011.2
20260509022601 30 116 19.3 38.6 0.00 0.05 0.03 65 1011.2
20260509022057 30 94 24.1 38.6 0.00 0.05 0.03 65 1011.4
20260509021559 30 112 19.3 37.0 0.00 0.05 0.03 67 1011.4
20260509021057 30 75 16.1 40.2 0.00 0.05 0.03 66 1011.4
20260509020556 30 64 24.1 40.2 0.00 0.05 0.03 68 1011.3
20260509020100 30 84 20.9 40.2 0.00 0.05 0.03 67 1011.3
20260509015556 30 113 19.3 32.2 0.00 0.05 0.03 67 1011.3
20260509015056 30 103 20.9 33.8 0.00 0.05 0.03 68 1011.4
20260509014556 30 78 22.5 33.8 0.00 0.05 0.03 67 1011.4
20260509014057 30 94 19.3 35.4 0.00 0.05 0.03 66 1011.5
20260509013558 30 116 24.1 38.6 0.00 0.05 0.03 67 1011.5
20260509013104 30 80 20.9 40.2 0.00 0.05 0.03 66 1011.5
20260509012557 30 72 25.7 41.8 0.00 0.05 0.03 66 1011.5
20260509012100 30 101 22.5 41.8 0.00 0.05 0.03 67 1011.5
20260509011600 30 71 22.5 41.8 0.00 0.05 0.03 68 1011.6
20260509011055 30 100 25.7 41.8 0.00 0.05 0.03 67 1011.4
20260509010556 30 90 20.9 38.6 0.00 0.05 0.03 66 1011.5
20260509010057 30 98 25.7 41.8 0.00 0.05 0.03 68 1011.4
20260509005557 30 94 22.5 41.8 0.00 0.05 0.03 69 1011.4
20260509005055 30 71 19.3 40.2 0.00 0.05 0.03 68 1011.4
20260509004558 30 74 22.5 38.6 0.00 0.05 0.03 69 1011.3
20260509004057 30 96 17.7 38.6 0.00 0.05 0.03 70 1011.4
20260509003558 30 107 25.7 41.8 0.00 0.05 0.03 70 1011.3
20260509003058 30 103 22.5 43.5 0.00 0.05 0.03 71 1011.4
20260509002600 30 109 24.1 43.5 0.00 0.05 0.03 69 1011.4
20260509002058 30 112 19.3 37.0 0.00 0.05 0.03 70 1011.5
20260509001559 30 115 24.1 37.0 0.00 0.05 0.03 70 1011.6
20260509001058 30 118 20.9 41.8 0.00 0.05 0.03 70 1011.5
20260509000600 29 71 24.1 41.8 0.00 0.05 0.03 72 1011.5
20260509000113 29 71 25.7 40.2 0.00 0.05 0.03 71 1011.5
20260508235557 29 78 20.9 38.6 0.00 0.05 0.03 71 1011.5
20260508235056 29 61 22.5 40.2 0.00 0.05 0.03 70 1011.5
20260508234559 30 74 22.5 40.2 0.00 0.05 0.03 69 1011.5
20260508234058 30 102 16.1 40.2 0.00 0.05 0.03 68 1011.5
20260508233555 30 107 22.5 33.8 0.00 0.05 0.03 67 1011.5
20260508233117 30 107 20.9 37.0 0.00 0.05 0.03 69 1011.6
20260508232555 30 80 24.1 41.8 0.00 0.05 0.03 69 1011.4
20260508232057 30 80 22.5 41.8 0.00 0.05 0.03 70 1011.4
20260508231556 30 60 25.7 45.1 0.00 0.05 0.03 70 1011.4
20260508231055 30 69 19.3 45.1 0.00 0.05 0.03 70 1011.4
20260508230556 29 94 29.0 43.5 0.00 0.05 0.03 69 1011.4
20260508230100 29 62 20.9 37.0 0.00 0.05 0.03 71 1011.5
20260508225556 29 108 24.1 45.1 0.00 0.05 0.03 72 1011.5
20260508225056 29 116 22.5 45.1 0.00 0.05 0.03 71 1011.5
20260508224641 29 114 25.7 43.5 0.00 0.05 0.03 72 1011.5
20260508224055 28 103 22.5 38.6 0.00 0.05 0.03 73 1011.4
20260508223603 28 73 20.9 38.6 0.00 0.05 0.03 74 1011.4
20260508223058 28 84 19.3 37.0 0.00 0.05 0.03 75 1011.4
20260508222557 28 112 22.5 45.1 0.00 0.05 0.03 75 1011.5
20260508222058 28 81 19.3 45.1 0.00 0.05 0.03 74 1011.4
20260508221558 28 47 22.5 38.6 0.00 0.05 0.03 73 1011.4
20260508221058 28 106 17.7 35.4 0.00 0.05 0.03 74 1011.4
20260508220557 28 113 19.3 35.4 0.00 0.05 0.03 75 1011.4
20260508220058 28 110 22.5 35.4 0.00 0.05 0.03 75 1011.3
20260508215556 28 94 24.1 37.0 0.00 0.05 0.03 75 1011.2
20260508215101 28 65 16.1 41.8 0.00 0.05 0.03 76 1011.3
20260508214558 28 55 22.5 41.8 0.00 0.05 0.03 75 1011.3
20260508214057 28 360 17.7 29.0 0.00 0.05 0.03 77 1011.3
20260508213556 28 70 17.7 32.2 0.00 0.05 0.03 76 1011.3
20260508213057 28 360 17.7 32.2 0.00 0.05 0.03 75 1011.4
20260508212558 28 360 20.9 32.2 0.00 0.05 0.03 74 1011.4
20260508212057 28 69 16.1 30.6 0.00 0.05 0.03 75 1011.3
20260508211559 28 101 16.1 30.6 0.00 0.05 0.03 76 1011.3
20260508211058 27 77 16.1 30.6 0.00 0.05 0.03 77 1011.1
20260508210557 27 90 14.5 27.4 0.00 0.05 0.03 78 1011.1
20260508210058 27 108 12.9 29.0 0.00 0.05 0.03 78 1011.2
20260508205556 27 360 12.9 29.0 0.00 0.05 0.03 78 1011.2
20260508205056 27 83 16.1 29.0 0.00 0.05 0.03 78 1010.9
20260508204558 27 360 17.7 27.4 0.00 0.05 0.03 78 1011.0
20260508204058 27 61 17.7 27.4 0.00 0.05 0.03 78 1011.0
20260508203558 27 101 14.5 25.7 0.00 0.05 0.03 78 1011.1
20260508203057 27 136 12.9 29.0 0.00 0.05 0.03 79 1010.9
20260508202558 27 360 17.7 29.0 0.00 0.05 0.03 79 1010.9
20260508202059 27 75 12.9 25.7 0.00 0.05 0.03 79 1010.8
20260508201558 27 66 14.5 25.7 0.00 0.05 0.03 79 1010.8
20260508201056 27 76 12.9 25.7 0.00 0.05 0.03 79 1010.7
20260508200556 27 38 12.9 25.7 0.00 0.05 0.03 79 1010.7
20260508200111 27 81 14.5 27.4 0.00 0.05 0.03 79 1010.6
20260508195558 27 360 17.7 27.4 0.00 0.05 0.03 79 1010.5
20260508195100 27 90 11.3 30.6 0.00 0.05 0.03 80 1010.4
20260508194557 27 73 17.7 30.6 0.00 0.05 0.03 80 1010.5
20260508194057 27 95 14.5 27.4 0.00 0.05 0.03 81 1010.4
20260508193557 26 360 12.9 22.5 0.00 0.05 0.03 81 1010.5
20260508193150 26 88 12.9 22.5 0.00 0.05 0.03 80 1010.3
20260508192557 26 102 9.7 22.5 0.00 0.05 0.03 80 1010.3
20260508192059 26 85 14.5 22.5 0.00 0.05 0.03 80 1010.4
20260508191603 26 107 12.9 20.9 0.00 0.05 0.03 79 1010.3
20260508191056 26 96 16.1 25.7 0.00 0.05 0.03 79 1010.3
20260508190556 26 360 14.5 30.6 0.00 0.05 0.03 79 1010.3
20260508190057 26 92 11.3 30.6 0.00 0.05 0.03 79 1010.3